• En España
  • Lista de países
  • Para 7 días
  • Temperatura del agua
  • Mapa Satelital
  • El tiempo en el mapa
  • Informadores
  • user-avatar
    Iniciar sesión

    Tiempo cada hora Elashka

    Hoy, 21 Septiembre, Viernes

    Tiempo Temperatura Precipitaciones Viento Presión Humedad
    00:00 +16°C° 0 mm 2 mps 740 mmHg 89%
    01:00 +15°C° 0 mm 1 mps 740 mmHg 90%
    02:00 +15°C° 0 mm 1 mps 740 mmHg 91%
    03:00 +15°C° 0 mm 1 mps 740 mmHg 91%
    04:00 +15°C° 0 mm 1 mps 741 mmHg 92%
    05:00 +14°C° 0 mm 1 mps 741 mmHg 92%
    06:00 +16°C° 0 mm 1 mps 741 mmHg 88%
    07:00 +18°C° 0 mm 1 mps 741 mmHg 83%
    08:00 +19°C° 0 mm 1 mps 742 mmHg 79%
    09:00 +21°C° 0 mm 1 mps 742 mmHg 73%
    10:00 +21°C° 0 mm 2 mps 742 mmHg 67%
    11:00 +23°C° 0 mm 2 mps 742 mmHg 61%
    12:00 +24°C° 0 mm 1 mps 742 mmHg 58%
    13:00 +25°C° 0 mm 1 mps 742 mmHg 54%
    14:00 +25°C° 0 mm 1 mps 742 mmHg 51%
    15:00 +24°C° 0 mm 1 mps 742 mmHg 55%
    16:00 +23°C° 0 mm 1 mps 742 mmHg 60%
    17:00 +22°C° 0 mm 1 mps 741 mmHg 64%
    18:00 +21°C° 0 mm 1 mps 741 mmHg 66%
    19:00 +20°C° 0 mm 1 mps 741 mmHg 68%
    20:00 +19°C° 0 mm 1 mps 741 mmHg 70%
    21:00 +19°C° 0 mm 1 mps 742 mmHg 71%
    22:00 +18°C° 0 mm 1 mps 742 mmHg 72%
    23:00 +17°C° 0 mm 2 mps 742 mmHg 73%

    Mañana, 22 Septiembre, Sábado

    Tiempo Temperatura Precipitaciones Viento Presión Humedad
    00:00 +17°C° 0 mm 2 mps 742 mmHg 74%
    01:00 +16°C° 0 mm 2 mps 742 mmHg 76%
    02:00 +16°C° 0 mm 2 mps 742 mmHg 77%
    03:00 +16°C° 0 mm 2 mps 741 mmHg 78%
    04:00 +16°C° 0 mm 2 mps 741 mmHg 79%
    05:00 +15°C° 0 mm 2 mps 741 mmHg 80%
    06:00 +17°C° 0 mm 3 mps 741 mmHg 76%
    07:00 +18°C° 0 mm 3 mps 741 mmHg 73%
    08:00 +19°C° 0 mm 4 mps 741 mmHg 69%
    09:00 +21°C° 0 mm 4 mps 741 mmHg 64%
    10:00 +22°C° 0 mm 5 mps 741 mmHg 59%
    11:00 +25°C° 0 mm 5 mps 740 mmHg 54%
    12:00 +25°C° 0 mm 5 mps 740 mmHg 53%
    13:00 +25°C° 0 mm 5 mps 740 mmHg 51%
    14:00 +26°C° 0 mm 6 mps 739 mmHg 49%
    15:00 +25°C° 0 mm 5 mps 739 mmHg 54%
    16:00 +22°C° 0 mm 5 mps 738 mmHg 59%
    17:00 +21°C° 0 mm 4 mps 738 mmHg 64%
    18:00 +21°C° 0 mm 4 mps 738 mmHg 62%
    19:00 +20°C° 0 mm 5 mps 737 mmHg 61%
    20:00 +20°C° 0 mm 5 mps 737 mmHg 59%
    21:00 +19°C° 0 mm 5 mps 737 mmHg 59%
    22:00 +19°C° 0 mm 5 mps 736 mmHg 58%
    23:00 +19°C° 0 mm 6 mps 736 mmHg 57%

    Pasado mañana, 23 Septiembre, Domingo

    Tiempo Temperatura Precipitaciones Viento Presión Humedad
    00:00 +17°C° 0 mm 5 mps 735 mmHg 59%
    01:00 +17°C° 0 mm 5 mps 735 mmHg 60%
    02:00 +16°C° 0 mm 5 mps 734 mmHg 62%
    03:00 +16°C° 0 mm 5 mps 734 mmHg 62%
    04:00 +16°C° 0 mm 5 mps 733 mmHg 63%
    05:00 +16°C° 0 mm 5 mps 733 mmHg 63%
    06:00 +16°C° 0.1 mm 5 mps 733 mmHg 65%
    07:00 +16°C° 0.1 mm 5 mps 732 mmHg 68%
    08:00 +17°C° 0.1 mm 4 mps 732 mmHg 70%
    09:00 +15°C° 0.6 mm 5 mps 732 mmHg 72%
    10:00 +15°C° 0.6 mm 6 mps 732 mmHg 75%
    11:00 +14°C° 0.6 mm 6 mps 732 mmHg 78%
    12:00 +11°C° 1.7 mm 6 mps 732 mmHg 81%
    13:00 +9°C° 1.7 mm 7 mps 732 mmHg 84%
    14:00 +8°C° 1.7 mm 7 mps 733 mmHg 87%
    15:00 +8°C° 0.4 mm 6 mps 733 mmHg 86%
    16:00 +8°C° 0.4 mm 6 mps 733 mmHg 85%
    17:00 +9°C° 0.4 mm 5 mps 733 mmHg 85%
    18:00 +8°C° 0 mm 5 mps 734 mmHg 86%
    19:00 +8°C° 0 mm 4 mps 734 mmHg 88%
    20:00 +8°C° 0 mm 4 mps 734 mmHg 89%
    21:00 +8°C° 0 mm 4 mps 734 mmHg 90%
    22:00 +7°C° 0 mm 4 mps 735 mmHg 91%
    23:00 +7°C° 0 mm 4 mps 735 mmHg 92%

    24 Septiembre, Lunes

    Tiempo Temperatura Precipitaciones Viento Presión Humedad
    00:00 +7°C° 0 mm 4 mps 735 mmHg 92%
    01:00 +7°C° 0 mm 3 mps 735 mmHg 93%
    02:00 +7°C° 0 mm 3 mps 735 mmHg 94%
    03:00 +7°C° 0 mm 3 mps 735 mmHg 94%
    04:00 +5°C° 0 mm 3 mps 735 mmHg 95%
    05:00 +5°C° 0 mm 3 mps 735 mmHg 96%
    06:00 +7°C° 0 mm 3 mps 736 mmHg 92%
    07:00 +7°C° 0 mm 4 mps 736 mmHg 89%
    08:00 +8°C° 0 mm 4 mps 736 mmHg 86%
    09:00 +10°C° 0 mm 4 mps 736 mmHg 80%
    10:00 +11°C° 0 mm 4 mps 736 mmHg 74%
    11:00 +13°C° 0 mm 4 mps 736 mmHg 68%
    12:00 +13°C° 0 mm 4 mps 736 mmHg 65%
    13:00 +13°C° 0 mm 4 mps 735 mmHg 63%
    14:00 +14°C° 0 mm 3 mps 735 mmHg 61%
    15:00 +13°C° 0 mm 3 mps 735 mmHg 65%
    16:00 +12°C° 0 mm 3 mps 734 mmHg 68%
    17:00 +12°C° 0 mm 3 mps 734 mmHg 71%
    18:00 +12°C° 0 mm 4 mps 733 mmHg 70%
    19:00 +10°C° 0 mm 5 mps 733 mmHg 69%
    20:00 +10°C° 0 mm 5 mps 732 mmHg 68%
    21:00 +10°C° 1.3 mm 6 mps 731 mmHg 71%
    22:00 +10°C° 1.3 mm 8 mps 730 mmHg 73%
    23:00 +8°C° 1.3 mm 9 mps 729 mmHg 76%

    25 Septiembre, Martes

    Tiempo Temperatura Precipitaciones Viento Presión Humedad
    00:00 +8°C° 1.5 mm 9 mps 728 mmHg 79%
    01:00 +8°C° 1.5 mm 10 mps 727 mmHg 82%
    02:00 +8°C° 1.5 mm 11 mps 726 mmHg 85%
    03:00 +8°C° 0.9 mm 10 mps 726 mmHg 86%
    04:00 +8°C° 0.9 mm 10 mps 725 mmHg 86%
    05:00 +10°C° 0.9 mm 9 mps 725 mmHg 86%
    06:00 +8°C° 0.1 mm 9 mps 725 mmHg 84%
    07:00 +8°C° 0.1 mm 9 mps 724 mmHg 81%
    08:00 +9°C° 0.1 mm 8 mps 724 mmHg 78%
    09:00 +8°C° 0.1 mm 9 mps 724 mmHg 76%
    10:00 +8°C° 0.1 mm 9 mps 724 mmHg 74%
    11:00 +8°C° 0.1 mm 9 mps 724 mmHg 72%
    12:00 +8°C° 0.1 mm 9 mps 723 mmHg 72%
    13:00 +8°C° 0.1 mm 9 mps 723 mmHg 72%
    14:00 +8°C° 0.1 mm 9 mps 723 mmHg 72%
    15:00 +7°C° 0.1 mm 8 mps 722 mmHg 74%
    16:00 +7°C° 0.1 mm 8 mps 722 mmHg 75%
    17:00 +8°C° 0.1 mm 7 mps 722 mmHg 76%
    18:00 +6°C° 0.2 mm 7 mps 722 mmHg 79%
    19:00 +7°C° 0.2 mm 6 mps 722 mmHg 82%
    20:00 +7°C° 0.2 mm 6 mps 722 mmHg 85%
    21:00 +7°C° 0.3 mm 5 mps 722 mmHg 87%
    22:00 +7°C° 0.3 mm 5 mps 722 mmHg 88%
    23:00 +7°C° 0.3 mm 5 mps 723 mmHg 90%

    26 Septiembre, Miércoles

    Tiempo Temperatura Precipitaciones Viento Presión Humedad
    00:00 +6°C° 0.4 mm 5 mps 723 mmHg 90%
    01:00 +5°C° 0.4 mm 6 mps 724 mmHg 89%
    02:00 +5°C° 0.4 mm 7 mps 724 mmHg 89%
    03:00 +5°C° 0.3 mm 7 mps 725 mmHg 88%
    04:00 +4°C° 0.3 mm 7 mps 726 mmHg 88%
    05:00 +4°C° 0.3 mm 8 mps 726 mmHg 87%
    06:00 +4°C° 0.1 mm 8 mps 727 mmHg 86%
    07:00 +4°C° 0.1 mm 8 mps 728 mmHg 85%
    08:00 +4°C° 0.1 mm 8 mps 729 mmHg 84%
    09:00 +4°C° 0.1 mm 8 mps 730 mmHg 83%
    10:00 +4°C° 0.1 mm 7 mps 731 mmHg 82%
    11:00 +4°C° 0.1 mm 7 mps 732 mmHg 81%
    12:00 +4°C° 0.2 mm 7 mps 733 mmHg 81%
    13:00 +4°C° 0.2 mm 7 mps 733 mmHg 80%
    14:00 +4°C° 0.2 mm 6 mps 734 mmHg 79%
    15:00 +4°C° 0.1 mm 6 mps 735 mmHg 80%
    16:00 +4°C° 0.1 mm 6 mps 735 mmHg 80%
    17:00 +5°C° 0.1 mm 5 mps 736 mmHg 80%
    18:00 +5°C° 0 mm 5 mps 737 mmHg 82%
    19:00 +3°C° 0 mm 5 mps 737 mmHg 83%
    20:00 +4°C° 0 mm 4 mps 738 mmHg 85%
    21:00 +4°C° 0 mm 4 mps 738 mmHg 86%
    22:00 +3°C° 0 mm 4 mps 739 mmHg 87%
    23:00 +3°C° 0 mm 4 mps 739 mmHg 88%
    Mostrar más